User: anonymous
Location: Unspecified
(0.0000°N, 0.0000°E)
Time: 12:00:40
(UTC+02:00)
Language:

Transit 2A - Orbit

View from above orbital plane
View from above orbital plane
View from above satellite
View from above satellite

Ground track
Ground track

The orbit data is extracted from the following two-line orbital elements,

1 00045U 60007A   14203.48631175 -.00000004  00000-0  26214-4 0  1915
2 00045 066.6966 303.5144 0249784 085.0960 352.3441 14.33017389813555
Epoch (UTC): 22 July 2014 11:40:17
Eccentricity: 0.0249784
inclination: 66.6966°
perigee height: 603 km
apogee height: 960 km
right ascension of ascending node: 303.5144°
argument of perigee: 85.0960°
revolutions per day: 14.33017389
mean anomaly at epoch: 352.3441°
orbit number at epoch: 81355

The dashed part of the orbit path shows where the satellite is in the earth's shadow,  

DLR